Peter Veres (小惑星センター)の通報によると、6月12日UT、ハワイ Mauna Loaにある小惑星
地球衝突最終警報システム Asteroid Terrestrial-impact Last Alert System (ATLAS)調査
プログラムのコースに0.5-m f/2 Schmidt反射望遠鏡で得たCCD画像から発見された天体が彗星
のように見えると報告し、ATLASチームが彗星的性質を見落としたことに驚いているとつけ加え
た。
小惑星センターのPCCP webpageに公表後、E. Guido (Castellammare di Stabia, イタリア,
6月17.4日UT, フィルターなし, 60-秒露出60枚のスタック, "Telescope Live" 0.61-m f/6.5
アストログラフ, El Sauce, チリ, 遠隔操作: 拡散した約10" の不規則な22"のコマが見える。
光度は17.1-17.4等であった)や佐藤英貴氏(東京都文京区, 6月17.4日, 60-秒露出12枚のスタッ
ク,0.51-m f/6.8 アストログラフ, Mayhill近郊, ニューメキシコ州, 米国, 遠隔操作: 強く
集光した12" のコマが見え、p.a. 230°に20"の尾がある。6".5の円形範囲で測定した光度は
17.3等であった)らによって彗星状と観測された。
彗星機能の報告は次のとおり、
OC Date Reporter Coma Tail PA Exposures
G40 2022-06-17 N. Paul 15" 18".4 247 9x50s
X02 2022-06-17 E. Guido 10" 20x60s
H06 2022-06-17 H. Sato 12" 20" 230 12x60s
G40 2022-06-18 N. Paul 22" 42" 234 6x50s
M21 2022-06-19 A. Aletti 6" 30" 235 50x30s
W89 2022-06-19 A. Hale 8" 60" 235
G40 2022-06-24 B. Lutkenhoner 6" 32" 240 14x50s
Q62 2022-06-24 M. Mattiazzo 10" 120" 220 10x60s
W88 2022-06-27 B. Lutkenhoner 7" 27" 237 5x50s
Z21 2022-06-28 A. Hale 7" 130" 230
発見位置は次のとおり、
2022 UT R.A. (2000) Decl. Mag.
June 12.57339 1 24 38.96 - 2 13 21.8 17.6
12.57708 1 24 39.34 - 2 13 18.9 17.2
12.58861 1 24 40.12 - 2 13 12.2 16.7
12.59419 1 24 40.63 - 2 13 08.0 17.4
12.59557 1 24 40.77 - 2 13 07.6 16.6
12.60661 1 24 41.60 - 2 13 00.7 16.7
12.60891 1 24 41.83 - 2 12 58.3 17.6
MPCの楕円軌道要素、位置推算表は次のとおり、
Orbital elements:
P/2022 L3 (ATLAS)
Epoch 2022 Oct. 28.0 TT = JDT 2459880.5
T 2022 Oct. 29.73105 TT Rudenko
q 2.4204977 (2000.0) P Q
n 0.05973848 Peri. 10.23538 +0.77182085 -0.60909564
a 6.4808696 Node 29.79949 +0.55434062 +0.50402378
e 0.6265165 Incl. 21.54098 +0.31144671 +0.61234184
P 16.5
From 51 observations 2022 June 12-28, mean residual 0".6.
Ephemeris:
Date TT R. A. (2000) Decl. Delta r Elong. Phase m1
2022 05 30 01 05 49.9 -04 43 37 3.1946 2.7535 55.7 17.7 17.9
...
2022 06 14 01 26 35.1 -01 57 46 2.9851 2.6961 63.8 19.8 17.7
...
2022 06 22 01 37 18.3 -00 31 03 2.8704 2.6672 68.3 20.7 17.6
...
2022 06 28 01 45 08.6 +00 33 06 2.7834 2.6464 71.7 21.4 17.4
2022 06 29 01 46 25.8 +00 43 43 2.7688 2.6430 72.3 21.5 17.4
2022 06 30 01 47 42.7 +00 54 19 2.7542 2.6396 72.8 21.6 17.4
...
2022 07 06 01 55 16.1 +01 57 27 2.6666 2.6197 76.3 22.2 17.3
...
2022 07 14 02 04 56.8 +03 20 30 2.5495 2.5945 81.1 22.8 17.2
...
2022 07 29 02 21 34.8 +05 53 16 2.3316 2.5512 90.5 23.5 16.9
(MPEC 2022-M97、CBET 5139)